Miscellaneous Local Product
Issued by NWS North Platte, NE

Home | Current Version | Previous Version | Text Only | Print | Product List | Glossary On
Versions: 1 2 3 4 5 6 7 8 9 10 11 12 13 14 15 16 17 18 19 20 21 22 23 24 25 26 27 28 29 30 31 32 33 34 35 36 37 38 39 40 41 42 43 44 45 46 47 48 49 50
000
AXUS43 KLBF 021310
MISLBF


WESTERN AND NORTH CENTRAL NEBRASKA HOURLY WEATHER ROUNDUP
NATIONAL WEATHER SERVICE NORTH PLATTE NE
800 AM CDT THU JUL 02 2015

***STATIONS NOT REPORTING VARIABLES SUCH AS SKY/WEATHER OR
PRESSURE ARE PROVIDED BY THE NEBRASKA DEPARTMENT OF
ROADS...RAWS...AND APRS NETWORKS...AND ARE NOT UNDER
NATIONAL WEATHER SERVICE QUALITY CONTROL***

...OBSERVATIONS IN AND NEAR THE EASTERN PANHANDLE OF NEBRASKA...

CITY           SKY/WX    TMP DP  RH WIND       PRES   REMARKS
PINE RIDGE     SUNNY     62  58  86 W9        30.07S
CHADRON        SUNNY     63  59  87 W8        30.09R
ALLIANCE       SUNNY     60  58  92 W10       30.09S
SIDNEY         PTSUNNY   60  58  92 SW7       30.13R
WHITECLAY        N/A     64  57  80 W5          N/A
CRESCENT LAKE    N/A     61  60  96 W9          N/A
$$

...OBSERVATIONS IN NORTH CENTRAL NEBRASKA...

CITY           SKY/WX    TMP DP  RH WIND       PRES   REMARKS
VALENTINE      PTSUNNY   67  63  87 W13       29.98S
BROKEN BOW     LGT RAIN  67  59  75 MISG      29.94R
VALENTINE NWR    N/A     62  58  87 NW5         N/A
SPRINGVIEW       N/A     69  66  91 W7          N/A
HALSEY           N/A     63  60  88 W6          N/A
BREWSTER         N/A     70  64  83 NW5         N/A
ROSE             N/A     80  80  99 NW6         N/A
NEWPORT          N/A     70  69  99 S3          N/A
SARGENT          N/A     67  65  95 CALM        N/A
CHAMBERS         N/A     66  64  95 MISG        N/A
EWING            N/A     64  63  96 E3          N/A
$$

...OBSERVATIONS IN SOUTHWEST NEBRASKA AND FAR NORTHEAST COLORADO...

CITY           SKY/WX    TMP DP  RH WIND       PRES   REMARKS
WRAY           FAIR      64  56  75 N5        30.13S
HOLYOKE        DRIZZLE   63  57  82 W3        30.11F
IMPERIAL       CLOUDY    63  58  83 N5        30.08R
NORTH PLATTE   LGT RAIN  64  61  90 S8        29.98F
MCCOOK         CLOUDY    66  59  78 NE7       30.03S
PAXTON           N/A     64  62  94 CALM        N/A
GOTHENBURG       N/A     64  57  79 SW3         N/A
CALLAWAY         N/A     64  62  94 E3          N/A
$$

...NORTH PLATTE AREA...

CITY           SKY/WX    TMP DP  RH WIND       PRES   REMARKS
AIRPORT        LGT RAIN  64  61  90 S8        29.98F
DOWNTOWN         N/A     63  61  93 MISG        N/A
HILLCREST        N/A     62  61  96 S6          N/A
$$

...SOME WEATHER OBSERVATIONS FROM AROUND THE REGION...

CITY           SKY/WX    TMP DP  RH WIND       PRES   REMARKS
DENVER         LGT RAIN  56  53  90 N14       30.29R
LARAMIE        PTSUNNY   55  53  93 SW12      30.34R
CHEYENNE       PTSUNNY   56  54  93 W12       30.26F
SCOTTSBLUFF    PTSUNNY   62  62 100 NW12      30.14R
RAPID CITY     SUNNY     65  62  90 N14       30.06R
PIERRE         LGT RAIN  61  60  97 SE8       29.96R
WINNER         CLOUDY    65  60  84 NE14G24   29.96R
SIOUX FALLS    CLOUDY    60  53  77 E7        30.00S
OMAHA          CLOUDY    64  59  83 E5        29.95F
GRAND ISLAND   CLOUDY    69  68  96 SW10      29.98R FOG
KANSAS CITY    CLOUDY    71  68  90 NE8       29.90R FOG
WICHITA        CLOUDY    77  72  84 N9        29.88R
HAYS           CLOUDY    73  64  73 E7        29.96R
LIBERAL        CLOUDY    77  59  53 N17       29.98F
GOODLAND       MOSUNNY   63  56  78 N14       30.10S
$$



USA.gov is the U.S. government's official web portal to all federal, state and local government web resources and services.